RH
83 80 62 44 40 41 36 33 32 33 33 30 27 24 22 20 18 16 14 12 10 7 6 6 6 5 4
90 91 89 80 47 47 43 42 39 36 39 35 31 30 28 26 24 21 17 15 14 12 10 7 7 6 6
82 70 85 92 96 90 69 67 52 41 36 34 32 36 35 33 28 26 21 19 15 13 12 10 9 8 7
100 76 86 88 97 99 96 92 89 90 84 41 35 40 41 38 35 30 26 27 25 21 17 13 11 10 9
96 100 98 95 94 93 93 90 88 91 90 90 91 82 43 34 32 32 34 36 36 31 25 21 18 15 12
96 97 93 93 98 94 93 92 88 84 85 86 91 91 94 93 44 36 36 37 35 36 37 35 29 24 21
97 97 96 98 95 96 91 89 86 79 94 97 93 95 92 88 89 43 35 36 37 37 39 38 36 40 33
92 86 86 95 94 92 82 85 84 88 89 100 98 93 89 88 86 89 72 41 40 42 41 41 42 40 38
94 95 98 98 96 96 96 98 98 93 88 90 89 90 89 65 60 80 64 54 50 47 46 45 45 47 48
89 90 92 89 92 91 91 91 90 85 82 86 88 88 88 85 85 98 96 98 98 66 48 50 48 68 82
97 94 96 96 98 96 96 96 91 85 90 92 88 95 94 90 73 66 69 76 89 92 74 57 51 57 64
90 89 88 87 88 90 91 95 95 97 98 100 100 100 96 92 92 91 87 90 88 84 86 80 54 52 55
90 88 87 89 94 95 98 98 100 99 100 99 100 99 95 93 89 89 98 86 82 80 82 85 81 61 65
94 95 98 100 100 100 96 96 97 96 98 100 96 100 96 93 91 95 88 87 86 89 87 84 88 95 83
100 100 100 100 100 100 96 95 97 95 94 96 98 100 100 100 97 92 89 84 82 85 92 92 92 96 87
100 98 100 100 100 100 98 95 95 99 95 94 100 100 100 94 94 94 90 83 79 77 79 100 89 79 85
100 100 100 100 100 100 100 100 96 99 98 96 99 100 99 99 77 89 97 84 83 83 78 73 73 73 84
Wind_Speed
17 16 17 17 16 17 17 18 18 16 16 17 17 17 16 15 15 15 16 17 19 21 22 24 26 29 31
18 17 17 17 18 19 18 20 21 21 20 20 20 20 20 19 17 17 17 18 19 20 21 24 25 26 29
22 20 19 16 16 18 18 19 21 22 24 23 22 22 21 20 20 19 19 20 20 21 22 24 26 28 30
20 22 20 18 18 18 18 16 17 16 20 23 22 21 21 20 20 22 22 22 23 23 24 24 26 28 31
19 20 22 20 18 18 20 20 19 19 21 19 18 19 22 22 23 22 23 24 25 26 27 28 28 29 31
25 25 24 25 22 22 23 23 26 20 19 18 18 21 22 22 25 24 24 25 27 28 28 29 30 32 34
28 25 22 18 22 25 27 28 29 26 24 30 25 28 25 24 26 29 29 29 29 29 31 30 30 30 32
28 30 32 29 27 29 33 33 33 32 28 30 23 27 24 27 30 31 33 32 30 29 30 29 29 30 33
26 28 29 30 29 29 33 32 30 27 25 29 30 35 34 41 38 32 34 34 29 26 27 28 28 30 35
26 28 26 27 30 32 34 36 36 39 33 31 30 28 38 35 22 18 20 22 27 33 30 30 32 33 34
22 18 18 20 22 25 28 31 36 39 31 29 32 29 33 43 45 40 39 40 35 34 37 34 32 33 38
26 27 27 28 29 30 32 32 34 35 29 27 33 30 33 39 41 35 34 33 34 38 38 39 38 39 38
27 28 27 26 25 27 27 27 29 30 29 29 30 31 32 37 41 39 36 36 35 38 38 38 38 40 41
20 22 22 23 24 24 25 24 25 26 24 25 25 25 29 32 35 37 34 37 35 37 39 39 38 37 40
19 20 20 20 20 20 22 22 23 24 26 22 22 24 26 27 32 34 33 34 34 35 36 42 40 39 39
18 20 19 20 21 22 22 23 24 22 24 24 22 22 24 27 27 30 29 30 31 31 31 33 40 40 39
19 20 20 21 21 23 23 23 25 25 24 23 25 25 25 27 28 23 28 31 32 32 33 34 40 47 41
Wind_Direction
275 282 287 294 293 291 288 283 279 276 281 283 284 286 287 289 290 291 293 292 284 279 276 276 275 274 273
277 281 284 288 290 291 290 286 282 280 280 281 280 281 283 284 291 295 296 294 294 294 290 285 281 278 276
280 284 285 286 289 290 290 287 286 283 281 278 278 278 279 281 284 287 291 296 295 294 292 290 287 283 281
266 280 283 285 282 284 287 287 286 284 285 283 280 278 278 280 278 281 282 284 291 294 295 292 288 286 284
264 268 280 283 278 280 279 287 286 289 289 283 283 284 282 279 278 279 279 281 283 284 287 290 291 290 286
268 265 269 270 274 276 281 284 286 290 284 283 284 282 281 280 285 285 283 282 278 279 280 284 290 291 291
272 271 268 266 270 275 278 281 284 288 280 281 280 279 281 280 280 289 288 285 282 279 277 280 285 285 290
265 268 268 268 266 269 279 283 284 282 285 281 284 279 279 275 280 282 286 288 287 285 280 276 282 287 287
272 268 265 266 263 274 276 280 280 276 277 282 283 282 280 285 287 283 286 286 281 283 281 276 283 287 289
278 274 271 268 263 259 264 268 273 278 277 280 282 282 289 286 292 298 289 287 290 290 284 282 284 283 283
275 285 270 258 261 262 265 266 272 272 276 273 275 273 267 277 282 286 281 286 288 285 288 285 285 282 285
278 274 270 269 268 265 266 265 263 265 268 261 265 268 273 279 282 286 287 287 286 287 288 288 287 285 284
273 272 271 271 271 269 267 266 265 265 264 266 266 269 271 275 281 284 288 288 286 283 284 283 283 283 284
272 272 270 270 271 271 273 274 275 276 273 271 269 268 268 270 276 280 284 285 284 279 281 285 283 278 279
269 271 273 274 273 273 273 274 273 278 279 278 280 279 272 271 273 277 283 285 286 284 279 279 282 279 279
270 271 271 271 272 272 272 273 276 277 278 277 283 286 279 277 275 283 287 289 291 292 288 278 281 281 280
270 270 270 271 273 274 273 272 273 276 279 282 282 281 280 276 290 282 276 286 291 289 287 286 283 277 274